Flag for Canada Weather past 2 weeks in Vaughan, Ontario, Canada

Now
28 °F

Passing clouds.


Feels Like: 20 °F
Forecast: 28 / 44 °F
Wind: 9 mph from North

Location: Toronto Buttonville

Current Time: Apr 1, 2015 at 2:52:21 AM

Latest Report: Apr 1, 2015 at 2:00 AM


Visibility: 15 mi

Pressure: 30.00 "Hg

Humidity: 47%

Dew point: 10 °F

Location of VaughanLocation

Historic Weather in Vaughan — Graph

°F

Vaughan temperature yesterday

Maximum temperature yesterday: 43 °F (at 4:00 PM)
Minimum temperature yesterday: 25 °F (at 4:00 AM)
Average temperature yesterday: 34 °F

Past Weeks' High & Low Weather Summary

 TemperatureHumidityPressure
High46 °F (Mar 20, 4:00 PM)100% (Mar 17, 1:00 AM)30.43 "Hg (Mar 17, 1:00 AM)
Low10 °F (Mar 23, 7:00 AM)25% (Mar 19, 2:00 PM)29.56 "Hg (Mar 30, 5:00 AM)
Average29 °F62%30.08 "Hg
* Reported Mar 17 1:00 AM — Apr 1 1:00 AM, Vaughan, Weather by CustomWeather, © 2015

Note: Actual official high and low records may vary slightly from our data, if they occured in-between our weather recording intervals... More about our weather records

Advertising

Vaughan weather history for previous 24 hours

 ConditionsComfort  
Time TempWeatherWind HumidityBarometerVisibility
1:00 AM
Wed, Apr 1
30 °FPassing clouds.8 mph40%29.99 "Hg15 mi
12:00 AM30 °FOvercast.12 mph40%29.99 "Hg15 mi
11:00 PM
Tue, Mar 31
30 °FPassing clouds.10 mph43%29.98 "Hg15 mi
10:00 PM30 °FPassing clouds.12 mph43%29.96 "Hg15 mi
9:00 PM32 °FPassing clouds.9 mph51%29.94 "Hg15 mi
8:00 PM34 °FPartly sunny.8 mph56%29.92 "Hg15 mi
7:00 PM37 °FScattered clouds.10 mph48%29.89 "Hg15 mi
6:00 PM41 °FScattered clouds.12 mph45%29.87 "Hg15 mi
5:00 PM43 °FBroken clouds.10 mph46%29.84 "Hg15 mi
4:00 PM43 °FBroken clouds.6 mph42%29.83 "Hg15 mi
3:00 PM41 °FPartly sunny.7 mph49%29.82 "Hg15 mi
2:00 PM41 °FPartly sunny.9 mph49%29.82 "Hg15 mi
1:00 PM41 °FPartly sunny.2 mph49%29.81 "Hg15 mi
12:00 PM39 °FPartly sunny.2 mph56%29.82 "Hg15 mi
11:00 AM37 °FPartly sunny.2 mph60%29.83 "Hg15 mi
10:00 AM36 °FBroken clouds.No wind65%29.85 "Hg15 mi
9:00 AM32 °FPartly sunny.2 mph80%29.86 "Hg15 mi
8:00 AM28 °FPassing clouds.2 mph86%29.86 "Hg15 mi
7:00 AM27 °FPassing clouds.No wind86%29.86 "Hg15 mi
6:00 AM27 °FPassing clouds.2 mph86%29.86 "Hg15 mi
5:00 AM25 °FPassing clouds.No wind93%29.87 "Hg15 mi
4:00 AM25 °FPassing clouds.No wind93%29.88 "Hg15 mi
3:00 AM28 °FClear.3 mph80%29.90 "Hg15 mi
2:00 AM28 °FClear.5 mph80%29.91 "Hg15 mi
Weather by CustomWeather, © 2015

See weather overviewHow to use our weather pages